Flag for United Kingdom Weather past 2 weeks in Newtown, Wales, United Kingdom

Now
44 °F

Quite cool.


Feels Like: 38 °F
Forecast: 29 / 47 °F
Wind: 12 mph from Northeast

Location: Lake Vyrnwy

Current Time: Apr 26, 2015 at 1:08:18 PM

Latest Report: Apr 26, 2015 at 12:00 PM


Visibility: 15 mi

Pressure: 29.84 "Hg

Humidity: 59%

Dew point: 30 °F

Location of NewtownLocation

Historic Weather in Newtown — Graph

°F

Newtown temperature yesterday

Maximum temperature yesterday: 51 °F (at 11:00 AM)
Minimum temperature yesterday: 35 °F (at 11:00 PM)
Average temperature yesterday: 45 °F

Past Weeks' High & Low Weather Summary

 TemperatureHumidityPressure
High61 °F (Apr 23, 4:00 PM)97% (Apr 14, 7:00 AM)30.60 "Hg (Apr 14, 7:00 AM)
Low31 °F (Apr 13, 1:00 AM)39% (Apr 23, 5:00 PM)29.60 "Hg (Apr 25, 6:00 AM)
Average46 °F77%30.18 "Hg
* Reported Apr 11 11:00 AM — Apr 26 11:00 AM, Newtown, Weather by CustomWeather, © 2015

Note: Actual official high and low records may vary slightly from our data, if they occured in-between our weather recording intervals... More about our weather records

Advertising

Newtown weather history for previous 24 hours

 ConditionsComfort  
Time TempWeatherWind HumidityBarometerVisibility
11:00 AM
Sun, Apr 26
43 °FQuite cool.13 mph60%29.84 "Hg19 mi
10:00 AM42 °FQuite cool.10 mph66%29.84 "Hg19 mi
9:00 AM40 °FQuite cool.12 mph76%29.83 "Hg15 mi
8:00 AM38 °FChilly.10 mph77%29.84 "Hg13 mi
7:00 AM37 °FChilly.13 mph83%29.82 "Hg14 mi
6:00 AM37 °FChilly.8 mph87%29.80 "Hg15 mi
5:00 AM38 °FChilly.13 mph86%29.79 "Hg12 mi
4:00 AM38 °FChilly.10 mph89%29.80 "Hg12 mi
3:00 AM38 °FChilly.7 mph91%29.80 "Hg14 mi
2:00 AM38 °FChilly.7 mph89%29.80 "Hg16 mi
1:00 AM37 °FChilly.6 mph90%29.80 "Hg18 mi
12:00 AM36 °FChilly.5 mph89%29.80 "Hg16 mi
11:00 PM
Sat, Apr 25
35 °FChilly.1 mph91%29.79 "Hg19 mi
10:00 PM35 °FChilly.5 mph88%29.79 "Hg6 mi
9:00 PM35 °FChilly.7 mph90%29.77 "Hg3 mi
8:00 PM37 °FChilly.9 mph85%29.75 "Hg18 mi
7:00 PM38 °FChilly.13 mph90%29.72 "Hg19 mi
6:00 PM41 °FQuite cool.9 mph92%29.70 "Hg28 mi
5:00 PM42 °FQuite cool.9 mph91%29.67 "Hg22 mi
4:00 PM50 °FCool.16 mph87%29.64 "Hg15 mi
3:00 PM50 °FCool.16 mph86%29.63 "Hg14 mi
2:00 PM49 °FCool.18 mph90%29.62 "Hg18 mi
1:00 PM49 °FCool.21 mph87%29.62 "Hg11 mi
Weather by CustomWeather, © 2015

See weather overviewHow to use our weather pages